This is the latest recevied weather packets stored in our database for station/object SM2NLD. If no packets are shown the sender has not sent any weather packets the latest 1 day(s).
| Time | Temp. | Humidity | Pressure | Rain* | Wind** | Luminosity | Snow |
|---|---|---|---|---|---|---|---|
| 1778077104 | 3.89° C | 11% | 998.3 hPa | 0 mm | - | - | - |
| 1778076804 | 5° C | 11% | 998 hPa | 0 mm | - | - | - |
| 1778076504 | 5.56° C | 11% | 998 hPa | 0 mm | - | - | - |
| 1778076442 | 5.56° C | 11% | 998 hPa | 0 mm | - | - | - |
| 1778076204 | 4.44° C | 11% | 997.9 hPa | 0 mm | - | - | - |
| 1778075904 | 4.44° C | 11% | 998.1 hPa | 0 mm | - | - | - |
| 1778075604 | 5° C | 11% | 998 hPa | 0 mm | - | - | - |
| 1778075304 | 5° C | 11% | 998 hPa | 0 mm | - | - | - |
| 1778075242 | 5° C | 11% | 997.9 hPa | 0 mm | - | - | - |
| 1778075004 | 4.44° C | 11% | 997.9 hPa | 0 mm | - | - | - |
| 1778074703 | 4.44° C | 11% | 997.9 hPa | 0 mm | - | - | - |
| 1778074403 | 5° C | 11% | 997.9 hPa | 0 mm | - | - | - |
| 1778074103 | 5° C | 11% | 997.9 hPa | 0 mm | - | - | - |
| 1778074041 | 5° C | 11% | 997.7 hPa | 0 mm | - | - | - |
| 1778073803 | 5° C | 11% | 997.8 hPa | 0 mm | - | - | - |
| 1778073503 | 4.44° C | 11% | 997.6 hPa | 0 mm | - | - | - |
| 1778073267 | 4.44° C | 11% | 997.8 hPa | 0 mm | - | - | - |
| 1778072967 | 5° C | 11% | 997.8 hPa | 0 mm | - | - | - |
| 1778072841 | 5° C | 11% | 997.8 hPa | 0 mm | - | - | - |
| 1778072667 | 5° C | 11% | 997.7 hPa | 0 mm | - | - | - |
| 1778072367 | 5° C | 11% | 997.9 hPa | 0 mm | - | - | - |
| 1778072067 | 3.89° C | 11% | 997.7 hPa | 0 mm | - | - | - |
| 1778071767 | 3.89° C | 11% | 997.8 hPa | 0 mm | - | - | - |
| 1778071641 | 4.44° C | 11% | 997.8 hPa | 0 mm | - | - | - |
| 1778071467 | 5° C | 11% | 997.8 hPa | 0 mm | - | - | - |
* Rain latest hour (hover to see other rain measurements)
** Current wind speed in m/s (hover to see current wind gust speed)